Regional Weather Roundup
Issued by NWS

Home | Current Version | Previous Version | Text Only | Print | Product List | Glossary On
Versions: 1 2 3 4 5 6 7 8 9 10 11 12 13 14 15 16 17 18 19 20 21 22 23 24 25 26 27 28 29 30 31 32 33 34 35 36 37 38 39 40 41 42 43 44 45 46 47 48 49 50
000
ASPQ40 PGUM 162312
RWRPQ
WEATHER ROUNDUP FOR THE MARIANAS AND MICRONESIA
NATIONAL WEATHER SERVICE TIYAN GU
900 AM CHST WED SEP 17 2014

GUZ001>004-170000-
MARIANA ISLANDS-

CITY           SKY/WX    TMP DP  RH WIND       PRES   REMARKS
GUAM AIRPORT   RAIN      75  73  94 S12       29.95  FOG
ANDERSEN AFB   DRIZZLE   77  75  94 SE12      29.94R
ROTA AIRPORT   LGT RAIN  75  75 100 SE12      29.91F
TINIAN AP      CLOUDY    77  73  88 SE6       29.89R
SAIPAN AP      MOSUNNY   77  75  94 SE9       29.90S

$$

PMZ161-170000-
REPUBLIC OF PALAU-

CITY           SKY/WX    TMP DP  RH WIND       PRES   REMARKS
KOROR AP       PTSUNNY   82  77  83 W14       29.77R HX  91
KOROR WSO      CLOUDY    82  75  78 W13       29.76R

$$

PMZ171>174-170000-
FEDERATED STATES OF MICRONESIA-

CITY           SKY/WX    TMP DP  RH WIND       PRES   REMARKS
YAP AIRPORT    CLOUDY    82  77  83 SW14      29.74R HX  91
CHUUK AP       MOSUNNY   86  79  79 VRB5      29.84S HX  99
POHNPEI AP     CLOUDY    86  77  74 E5        29.84R HX  97
POHNPEI WSO    CLOUDY    86  81  84 NE3       29.88S HX 102
KOSRAE AP      NOT AVBL

$$

PMZ181-170000-
REPUBLIC OF THE MARSHALL ISLANDS-

CITY           SKY/WX    TMP DP  RH WIND       PRES   REMARKS
KWAJALEIN AP   SUNNY     79  75  89 SW9       29.87F
MAJURO AP      NOT AVBL
MAJURO WSO     PTSUNNY   84  77  79 S8        29.83F HX  94

$$



USA.gov is the U.S. government's official web portal to all federal, state and local government web resources and services.